Погода в Старых Саврушах

Россия / Республика Татарстан     54°59′50″N   50°43′59″E
темп.,
°C
ветер,
м/с
пор.,
м/с
влажн.,
%
обл.,
%
осадки,
мм/ч
давл.,
гПа
погр.,
м
4 июля, пн
пн400:00+13с5119571 0.1 1010285
03:00+13с51091100 0.2 1009462
06:00+12ссв6108428 0.0 1010446
09:00+16ссв69665 0.0 10101167
12:00+14ссв7983100 0.1 10111125
15:00+16св797568 0.3 1011884
18:00+16ссв610771 0.4 1012858
21:00+11ссв38911 0.4 1013137
5 июля, вт
вт500:00+9ссв36915 0.0 101491
03:00+8ссв49915 0.0 1016183
06:00+11ссв510738 0.0 1016385
09:00+14св5859100 0.0 1017863
12:00+18ссв565499 0.0 10171481
15:00+19с5754100 0.0 10161904
18:00+18ссз3772100 0.0 1016255
21:00+13сз347942 0.0 101751
6 июля, ср
ср600:00+12сз33825 0.0 101741
03:00+11сз34863 0.0 101759
06:00+15ссз35780 0.0 1017163
09:00+20сз346243 0.0 1017620
12:00+22сз44555 0.0 10171303
15:00+23сз45560 0.0 10161390
18:00+21зсз35730 0.0 1016195
21:00+16з33810 0.0 101737
7 июля, чт
чт700:00+15з33820 0.0 101635
03:00+14зсз22840 0.0 101716
06:00+18з24780 0.0 1018134
09:00+22з22650 0.0 1018541
12:00+25з33551 0.0 10171266
15:00+26зюз225539 0.0 10171360
18:00+24зюз12685 0.0 101752
21:00+19ююз337644 0.0 101720
8 июля, пт
пт800:00+17юз34835 0.0 101744
03:00+17юз3478100 0.0 101855
06:00+19юз3679100 0.0 1018172
09:00+23юз45705 0.1 1018503
12:00+27зюз336359 0.1 10171190
15:00+27з335976 0.4 10161082
18:00+22ссв3584100 4.8 101674
21:00+19ююв3387100 5.7 101734